Location: Solstice Park, West Seattle
(47.5363°N, 122.3905°W)
Time: 14:06:39
(UTC-07:00)

ISS - Pass Details

Date: 22 May 2021
Orbit: 417 x 422 km, 51.6° (Epoch: 22 June)

Event Time Altitude Azimuth Distance (km) Brightness Sun altitude
Rises 23:16:52 0° 291° (WNW) 2,368 0.8 -17.5°
Reaches altitude 10° 23:19:00 10° 297° (WNW) 1,503 -0.2 -17.7°
Maximum altitude 23:22:19 52° 15° (NNE) 529 -3.0 -17.9°
Enters shadow 23:24:01 25° 82° (E) 896 -2.3 -18.1°
